Station FRVM3 - 8447386 - Fall River, MA Image indicating link to RSS feed of recent meteorological observations for station FRVM3


Conditions at FRVM3 as of
(7:00 pm EDT)
2300 GMT on 05/19/2024:
     

Click on the graph icon in the table below to see a time series plot of the last five days of that observation.

5-day plot - Water Temperature Water Temperature (WTMP): 53.4 °F
NOS Water Level Observation Network Water Level
Previous observations
TIME
(EDT)
5-day plot - Wind Direction
WDIR
 
5-day plot - Wind Speed
WSPD
kts
5-day plot - Wind Gust
GST
kts
5-day plot - Wave Height
WVHT
ft
5-day plot - Dominant Wave Period
DPD
sec
5-day plot - Average Wave Period
APD
sec
5-day plot - Mean Wave Direction
MWD
 
5-day plot - Atmospheric Pressure
PRES
in
5-day plot - Pressure Tendency
PTDY
in
5-day plot - Air Temperature
ATMP
°F
5-day plot - Water Temperature
WTMP
°F
5-day plot - Dew Point
DEWP
°F
5-day plot - Salinity
SAL
psu
5-day plot - Visibility
VIS
nmi
5-day plot - Tide (above MLLW)
TIDE
ft
2024-05-19 06:54 pm---------- 53.8----
2024-05-19 06:48 pm-------30.03-- 53.8----
2024-05-19 06:42 pm-------30.03-- 53.8----
2024-05-19 06:36 pm-------30.03-- 53.6----
2024-05-19 06:30 pm-------30.03-- 53.6----
2024-05-19 06:24 pm-------30.03-- 53.4----
2024-05-19 06:18 pm-------30.02- 55.6 53.4----
2024-05-19 06:12 pm-------30.02- 55.6 53.6----
2024-05-19 06:06 pm-------30.02- 55.8 53.6----
2024-05-19 06:00 pm-------30.02+0.02 55.9 53.6----
2024-05-19 05:54 pm-------30.02- 55.9 53.6----
2024-05-19 05:48 pm-------30.02- 56.1 53.6----
2024-05-19 05:42 pm-------30.01- 56.3 53.4----
2024-05-19 05:36 pm-------30.02- 56.5 53.2----
2024-05-19 05:30 pm-------30.02- 56.7 53.2----
2024-05-19 05:24 pm-------30.02- 56.7 53.4----
2024-05-19 05:18 pm-------30.01- 56.8 53.4----
2024-05-19 05:12 pm-------30.01- 56.8 53.2----
2024-05-19 05:06 pm-------30.01- 57.2 53.2----
2024-05-19 05:00 pm-------30.01+0.00 57.4 53.4----
2024-05-19 04:54 pm-------30.01- 57.2 52.9----
2024-05-19 04:48 pm-------30.01- 58.1 52.7----
2024-05-19 04:42 pm-------30.01- 57.6 52.9----
2024-05-19 04:36 pm-------30.01- 57.6 52.9----
2024-05-19 04:30 pm-------30.01- 57.7 52.9----
2024-05-19 04:24 pm-------30.01- 57.7 52.9----
2024-05-19 04:18 pm-------30.01- 57.9 53.1----
2024-05-19 04:12 pm-------30.01- 57.7 53.1----
2024-05-19 04:06 pm-------30.01- 57.6 53.1----
2024-05-19 04:00 pm-------30.01-0.01- 53.1----
2024-05-19 03:54 pm-------30.01-- 53.1----
2024-05-19 03:48 pm-------30.01-- 53.4----
2024-05-19 03:42 pm-------30.01-- 53.2----
2024-05-19 03:36 pm-------30.01-- 53.6----
2024-05-19 03:30 pm-------30.01- 57.7 53.2----
2024-05-19 03:24 pm-------30.00- 58.1 53.1----
2024-05-19 03:18 pm-------30.00- 57.9 53.4----
2024-05-19 03:12 pm-------30.00- 58.1 53.4----
2024-05-19 03:06 pm-------30.00- 58.1 53.4----
2024-05-19 03:00 pm-------30.00-0.03- 53.6----
2024-05-19 02:54 pm-------30.00-- 53.6----
2024-05-19 02:48 pm-------30.01- 57.6 53.1----
2024-05-19 02:42 pm-------30.01- 57.4 52.7----
2024-05-19 02:36 pm-------30.01- 57.2 53.1----
2024-05-19 02:30 pm-------30.01- 57.0 52.9----
2024-05-19 02:24 pm-------30.01- 57.4 53.1----
2024-05-19 02:18 pm-------30.01- 57.2 53.2----
2024-05-19 02:12 pm-------30.01- 57.2 53.2----
2024-05-19 02:06 pm-------30.01- 57.4 53.2----
2024-05-19 02:00 pm-------30.01+0.00 57.2 53.2----
2024-05-19 01:54 pm-------30.01- 57.2 53.2----
2024-05-19 01:48 pm-------30.02- 57.2 53.1----
2024-05-19 01:42 pm-------30.02- 56.8 53.2----
2024-05-19 01:36 pm-------30.02- 57.0 53.2----
2024-05-19 01:30 pm-------30.02- 56.8 53.4----
2024-05-19 01:24 pm-------30.02- 56.5 53.4----
2024-05-19 01:18 pm-------30.02-- 53.4----
2024-05-19 01:12 pm-------30.02-- 53.6----
2024-05-19 01:06 pm-------30.02-- 52.9----
2024-05-19 01:00 pm-------30.02+0.01- 53.2----
2024-05-19 12:54 pm-------30.02-- 53.8----
2024-05-19 12:48 pm-------30.03- 57.0 53.6----
2024-05-19 12:42 pm-------30.03- 57.2 53.1----
2024-05-19 12:36 pm-------30.02- 57.4 52.9----
2024-05-19 12:30 pm-------30.02- 57.4 53.1----
2024-05-19 12:24 pm-------30.03- 57.2 52.9----
2024-05-19 12:18 pm-------30.03- 57.0 53.4----
2024-05-19 12:12 pm-------30.03- 57.0 53.2----
2024-05-19 12:06 pm-------30.03- 57.4 53.4----
2024-05-19 12:00 pm-------30.03+0.03 57.0 53.6----
2024-05-19 11:54 am-------30.03- 56.8 54.0----
2024-05-19 11:48 am-------30.03- 56.7 54.0----
2024-05-19 11:42 am-------30.03- 56.8 53.6----
2024-05-19 11:36 am-------30.03- 57.0 53.8----
2024-05-19 11:30 am-------30.02- 56.8 53.2----
2024-05-19 11:24 am-------30.02- 57.0 53.6----
2024-05-19 11:18 am-------30.02- 57.2 53.8----
2024-05-19 11:12 am-------30.02- 56.7 53.8----
2024-05-19 11:06 am-------30.02- 56.7 53.8----
2024-05-19 11:00 am-------30.02+0.02 57.0 53.8----
2024-05-19 10:54 am-------30.02- 57.0 53.8----
2024-05-19 10:48 am-------30.02- 57.0 54.0----
2024-05-19 10:42 am-------30.02- 56.8 54.0----
2024-05-19 10:36 am-------30.01- 56.7 53.4----
2024-05-19 10:30 am-------30.01- 56.7 53.1----
2024-05-19 10:24 am-------30.01- 56.3 53.1----
2024-05-19 10:18 am-------30.01- 56.1 53.1----
2024-05-19 10:12 am-------30.01- 56.3 53.2----
2024-05-19 10:06 am-------30.01- 55.9 53.2----
2024-05-19 10:00 am-------30.01+0.02- 53.4----
2024-05-19 09:54 am-------30.01-- 53.8----
2024-05-19 09:48 am-------30.01- 55.9 54.9----
2024-05-19 09:42 am-------30.01- 55.9 54.7----
2024-05-19 09:36 am-------30.01- 55.6 54.9----
2024-05-19 09:30 am-------30.01-- 54.9----
2024-05-19 09:24 am-------30.00-- 54.9----
2024-05-19 09:18 am-------30.00-- 54.1----
2024-05-19 09:12 am-------30.00-- 54.7----
2024-05-19 09:06 am-------30.00-- 54.7----
2024-05-19 09:00 am-------30.00+0.02- 54.7----
2024-05-19 08:54 am-------30.00-- 54.7----
2024-05-19 08:48 am-------30.00- 54.9 54.9----
2024-05-19 08:42 am-------30.00- 54.9 54.0----
2024-05-19 08:36 am-------30.00- 54.3 54.9----
2024-05-19 08:30 am-------30.00- 54.1-----
2024-05-19 08:24 am-------30.00- 54.0-----
2024-05-19 08:18 am-------30.00-- 54.3----
2024-05-19 08:12 am-------30.00-- 54.0----
2024-05-19 08:06 am-------30.00-- 54.0----
2024-05-19 08:00 am-------30.00+0.04 53.6 54.1----
2024-05-19 07:54 am-------30.00- 53.8 53.8----
2024-05-19 07:48 am-------30.00- 53.8 53.8----
2024-05-19 07:42 am-------30.00- 53.6 53.8----
2024-05-19 07:36 am-------30.00- 53.4 53.8----
2024-05-19 07:30 am-------30.00- 53.6 53.8----
2024-05-19 07:24 am-------29.99- 53.6 54.0----
2024-05-19 07:18 am-------29.99- 53.4 53.8----
2024-05-19 07:12 am-------29.99- 53.4 53.8----
2024-05-19 07:06 am-------29.99- 53.4 53.6----
2024-05-19 07:00 am-------29.99+0.04------
2024-05-19 06:54 am-------29.99-------
2024-05-19 06:48 am-------29.99-- 53.6----
2024-05-19 06:42 am-------29.98-- 53.4----
2024-05-19 06:36 am-------29.98-- 53.4----
2024-05-19 06:30 am-------29.98- 52.7 53.4----
2024-05-19 06:24 am-------29.98- 52.7 53.2----
2024-05-19 06:18 am-------29.98-- 53.2----
2024-05-19 06:12 am-------29.98-- 53.2----
2024-05-19 06:06 am-------29.98-- 53.4----
2024-05-19 06:00 am-------29.98+0.01------
2024-05-19 05:54 am-------29.98-------
2024-05-19 05:48 am-------29.98- 52.3 53.6----
2024-05-19 05:42 am-------29.97- 52.3 53.6----
2024-05-19 05:36 am-------29.97- 52.3 54.0----
2024-05-19 05:30 am-------29.97- 52.2 54.1----
2024-05-19 05:24 am-------29.97- 52.2 54.1----
2024-05-19 05:18 am-------29.97- 52.2 54.1----
2024-05-19 05:12 am-------29.97- 52.2 54.1----
2024-05-19 05:06 am-------29.96- 52.2 54.1----
2024-05-19 05:00 am-------29.96+0.00 52.3 54.0----
2024-05-19 04:54 am-------29.96- 52.5 53.8----
2024-05-19 04:48 am-------29.96- 52.3 53.8----
2024-05-19 04:42 am-------29.96- 52.3 53.8----
2024-05-19 04:36 am-------29.96- 52.3 53.8----
2024-05-19 04:30 am-------29.96- 52.3 53.8----
2024-05-19 04:24 am-------29.96- 52.3 53.8----
2024-05-19 04:18 am-------29.96- 52.2 53.6----
2024-05-19 04:12 am-------29.96- 52.2 53.6----
2024-05-19 04:06 am-------29.96- 52.2 53.4----
2024-05-19 04:00 am-------29.96-0.01 52.0 53.2----
2024-05-19 03:54 am-------29.96- 52.2 53.2----
2024-05-19 03:48 am-------29.96- 52.0 53.1----
2024-05-19 03:42 am-------29.96- 51.8 52.9----
2024-05-19 03:36 am-------29.96- 51.8 52.9----
2024-05-19 03:30 am-------29.96- 51.6 52.9----
2024-05-19 03:24 am-------29.96- 51.8 52.9----
2024-05-19 03:18 am-------29.96- 51.8 52.7----
2024-05-19 03:12 am-------29.96- 51.6 52.9----
2024-05-19 03:06 am-------29.96- 51.8 53.1----
2024-05-19 03:00 am-------29.96-0.01 51.8 52.9----
2024-05-19 02:54 am-------29.96- 51.8 53.1----
2024-05-19 02:48 am-------29.96- 52.0 53.2----
2024-05-19 02:42 am-------29.96- 51.8 53.1----
2024-05-19 02:36 am-------29.96- 51.8 52.9----
2024-05-19 02:30 am-------29.96- 51.8 53.1----
2024-05-19 02:24 am-------29.96- 51.8 53.2----
2024-05-19 02:18 am-------29.96- 52.0 53.2----
2024-05-19 02:12 am-------29.96- 51.8 53.1----
2024-05-19 02:06 am-------29.96- 52.0 52.9----
2024-05-19 02:00 am-------29.96-0.03 52.0 52.7----
2024-05-19 01:54 am-------29.96- 52.0 52.7----
2024-05-19 01:48 am-------29.96- 52.0 52.9----
2024-05-19 01:42 am-------29.96- 52.0 52.9----
2024-05-19 01:36 am-------29.96- 52.0 52.9----
2024-05-19 01:30 am-------29.96- 52.0 52.5----
2024-05-19 01:24 am-------29.96- 52.0 52.5----
2024-05-19 01:18 am-------29.96- 52.2 52.7----
2024-05-19 01:12 am-------29.96- 52.3 52.9----
2024-05-19 01:06 am-------29.96- 52.3 52.9----
2024-05-19 01:00 am-------29.97-0.03 52.3 53.1----
2024-05-19 12:54 am-------29.97- 52.3 53.1----
2024-05-19 12:48 am-------29.96- 52.3 53.2----
2024-05-19 12:42 am-------29.96- 52.3 53.2----
2024-05-19 12:36 am-------29.97- 52.5 53.1----
2024-05-19 12:30 am-------29.97- 52.5 53.1----
2024-05-19 12:24 am-------29.97- 52.5 52.9----
2024-05-19 12:18 am-------29.97- 52.5 52.9----
2024-05-19 12:12 am-------29.97- 52.3 52.9----
2024-05-19 12:06 am-------29.97- 52.5 52.9----
2024-05-19 12:00 am-------29.97-0.02 52.5 52.9----
2024-05-18 11:54 pm-------29.97- 52.7 53.1----
2024-05-18 11:48 pm-------29.97- 52.7 53.1----
2024-05-18 11:42 pm-------29.98- 52.7 52.9----
2024-05-18 11:36 pm-------29.98- 52.9 52.9----
2024-05-18 11:30 pm-------29.98- 52.9 52.9----
2024-05-18 11:24 pm-------29.98- 53.1 52.9----
2024-05-18 11:18 pm-------29.98- 53.1 52.9----
2024-05-18 11:12 pm-------29.99- 53.1 53.1----
2024-05-18 11:06 pm-------29.99- 53.1 53.2----
2024-05-18 11:00 pm-------29.99+0.00 53.1 53.1----
2024-05-18 10:54 pm-------29.99- 53.1 53.1----
2024-05-18 10:48 pm-------29.99- 53.2 53.2----
2024-05-18 10:42 pm-------29.99- 53.2 53.1----
2024-05-18 10:36 pm-------30.00- 53.2 53.2----
2024-05-18 10:30 pm-------30.00- 53.4 53.2----
2024-05-18 10:24 pm-------30.00- 53.4 53.2----
2024-05-18 10:18 pm-------30.00- 53.6 53.4----
2024-05-18 10:12 pm-------30.00- 53.6 53.6----
2024-05-18 10:06 pm-------30.00- 53.8 54.0----
2024-05-18 10:00 pm-------30.00+0.00 53.8 53.8----
2024-05-18 09:54 pm-------30.00- 54.0 53.4----
2024-05-18 09:48 pm-------30.00- 53.8 52.7----
2024-05-18 09:42 pm-------30.00- 54.0 53.1----
2024-05-18 09:36 pm-------30.00- 54.0 53.2----
2024-05-18 09:30 pm-------30.00- 54.0 53.4----
2024-05-18 09:24 pm-------30.00- 54.0 54.3----
2024-05-18 09:18 pm-------30.00- 54.0 55.6----
2024-05-18 09:12 pm-------30.00- 54.1 55.6----
2024-05-18 09:06 pm-------29.99- 54.1 55.6----
2024-05-18 09:00 pm-------29.99+0.00 54.1 55.6----
2024-05-18 08:54 pm-------29.99- 54.1 55.6----
2024-05-18 08:48 pm-------29.99- 54.1 55.6----
2024-05-18 08:42 pm-------29.99- 54.1 55.4----
2024-05-18 08:36 pm-------29.99- 54.1 55.4----
2024-05-18 08:30 pm-------29.98- 54.1 55.6----
2024-05-18 08:24 pm-------29.98- 54.3 55.8----
2024-05-18 08:18 pm-------29.98- 54.1 55.6----
2024-05-18 08:12 pm-------29.98- 54.3 55.8----
2024-05-18 08:06 pm-------29.98- 54.1 54.9----
2024-05-18 08:00 pm-------29.99+0.00 54.1 54.0----
2024-05-18 07:54 pm-------29.99- 54.1 55.4----